Weather History for Ogden, UT

Change the Weather History Date:

Wednesday, May 22, 2013

  Actual Average Record
Temperature  
Mean Temperature 64 °F -  
Max Temperature 80 °F 74 °F 89 °F (1934)
Min Temperature 48 °F 46 °F 34 °F (1930)
Degree Days  
Heating Degree Days 2    
Growing Degree Days 14 (Base 50)    
Moisture  
Dew Point 33 °F    
Average Humidity 32    
Maximum Humidity 46    
Minimum Humidity 17    
Precipitation  
Precipitation 0.00 in - - ()
Sea Level Pressure  
Sea Level Pressure 29.53 in    
Wind  
Wind Speed 12 mph (WSW)    
Max Wind Speed 23 mph    
Max Gust Speed 37 mph    
Visibility 10 miles    
Events      
Averages and records for this station are not official NWS values.
T = Trace of Precipitation, MM = Missing Value Source: NWS Daily Summary

Daily Weather History Graph

Daily Weather History Graph

Search for Another Location

Airport:

Trip Planner

Search our weather history database for the weather conditions in past years. The results will help you decide how hot, cold, wet, or windy it might be!

Date:

Astronomy

May. 22, 2013 Rise Set
Actual Time 6:03 AM MDT 8:46 PM MDT
Civil Twilight 5:31 AM MDT 9:18 PM MDT
Nautical Twilight 4:51 AM MDT 9:59 PM MDT
Astronomical Twilight 4:05 AM MDT 10:45 PM MDT
Moon 6:12 PM MDT (5/22) 4:11 AM MDT (5/22)
Length of Visible Light 15h 47m
Length of Day
14h 43m
Waxing Gibbous, 92% of the Moon is Illuminated
May 22
Waxing Gibbous
May 24
Full
May 31
Last Quarter
Jun 8
New
Jun 16
First Quarter

Hourly Weather History & Observations

Time (MDT) Temp. Dew Point Humidity Pressure Visibility Wind Dir Wind Speed Gust Speed Precip Events Conditions
12:53 AM 63.0 °F 32.0 °F 31% 29.56 in 10.0 mi South 11.5 mph - N/A   Clear
1:53 AM 64.0 °F 32.0 °F 30% 29.54 in 10.0 mi SSE 10.4 mph - N/A   Clear
2:53 AM 64.0 °F 28.9 °F 27% 29.53 in 10.0 mi SSE 11.5 mph - N/A   Clear
3:53 AM 63.0 °F 28.0 °F 27% 29.53 in 10.0 mi SSE 12.7 mph - N/A   Clear
4:53 AM 60.1 °F 28.9 °F 31% 29.54 in 10.0 mi SSE 9.2 mph - N/A   Clear
5:53 AM 57.9 °F 30.9 °F 36% 29.53 in 10.0 mi South 9.2 mph - N/A   Clear
6:53 AM 57.9 °F 33.1 °F 39% 29.54 in 10.0 mi SSE 6.9 mph - N/A   Clear
7:53 AM 64.0 °F 33.1 °F 31% 29.53 in 10.0 mi Calm Calm - N/A   Clear
8:53 AM 68.0 °F 34.0 °F 28% 29.53 in 10.0 mi Calm Calm - N/A   Clear
9:53 AM 73.9 °F 30.9 °F 21% 29.51 in 10.0 mi South 16.1 mph 24.2 mph N/A   Clear
10:53 AM 77.0 °F 28.9 °F 17% 29.49 in 10.0 mi South 23.0 mph 29.9 mph N/A   Clear
11:53 AM 79.0 °F 30.0 °F 17% 29.48 in 10.0 mi South 21.9 mph 29.9 mph N/A   Clear
12:53 PM 75.9 °F 39.0 °F 26% 29.48 in 10.0 mi West 8.1 mph - N/A   Clear
1:53 PM 75.9 °F 37.0 °F 24% 29.47 in 10.0 mi West 9.2 mph - N/A   Clear
2:53 PM 75.9 °F 37.9 °F 25% 29.46 in 10.0 mi North 8.1 mph - N/A   Clear
3:53 PM 75.0 °F 37.0 °F 25% 29.44 in 10.0 mi NNW 10.4 mph - N/A   Clear
4:53 PM 73.0 °F 42.1 °F 33% 29.44 in 10.0 mi NNW 23.0 mph 31.1 mph N/A   Clear
5:53 PM 66.0 °F 37.9 °F 36% 29.51 in 10.0 mi NNW 21.9 mph 36.8 mph N/A   Partly Cloudy
6:53 PM 62.1 °F 36.0 °F 38% 29.54 in 10.0 mi NNW 18.4 mph 28.8 mph N/A   Clear
7:53 PM 55.0 °F 34.0 °F 45% 29.57 in 10.0 mi NNW 17.3 mph 24.2 mph N/A   Clear
8:53 PM 52.0 °F 30.9 °F 45% 29.61 in 10.0 mi NNW 19.6 mph - N/A   Clear
9:53 PM 51.1 °F 28.9 °F 43% 29.62 in 10.0 mi NNW 20.7 mph 27.6 mph N/A   Clear
10:53 PM 48.9 °F 28.9 °F 46% 29.65 in 10.0 mi NW 12.7 mph 18.4 mph N/A   Clear
11:53 PM 48.0 °F 27.0 °F 44% 29.66 in 10.0 mi NW 8.1 mph - N/A   Clear